Regional Weather Roundup
Issued by NWS Bismarck, ND

Home | Current Version | Previous Version | Text Only | Print | Product List | Glossary On
Versions: 1 2 3 4 5 6 7 8 9 10 11 12 13 14 15 16 17 18 19 20 21 22 23 24 25 26 27 28 29 30 31 32 33 34 35 36 37 38 39 40 41 42 43 44 45 46 47 48 49 50
000
ASUS43 KBIS 222102
RWRBIS

NWR BROADCAST TEXT
NATIONAL WEATHER SERVICE BISMARCK ND
400 PM CDT WED MAR 22 2017

NOTE: "FAIR" INDICATES FEW OR NO CLOUDS BELOW 12,000 FEET WITH NO
SIGNIFICANT WEATHER AND/OR OBSTRUCTIONS TO VISIBILITY.


CITY           SKY/WX    TMP DP  RH WIND       PRES   REMARKS
WILLISTON      FAIR      48  31  51 SE8       29.80F
MINOT          CLOUDY    40  28  62 SE21G26   29.91F
MINOT AFB      CLOUDY    37  29  72 S17       29.90F
BISMARCK       CLOUDY    47  30  51 S23G30    29.94F
DICKINSON      FAIR      53  33  46 S15       29.77F
GARRISON         N/A     40  30  67 S15       29.89F
HETTINGER ARPT FAIR      56  36  47 S14       29.81F
JAMESTOWN      CLOUDY    31  24  75 SE25G32   30.07S WCI  17
HAZEN          FAIR      46  30  53 S22       29.90F
LINTON           N/A     43  32  65 S24G35    29.96F
MANDAN         CLOUDY    43  30  61 SE24G35   29.92F
RUGBY            N/A     32  27  80 SE20      30.00S
STANLEY        CLOUDY    39  34  81 S21       29.87F
TIOGA          MOCLDY    37  36  93 SE15G21   29.84F
$$

CITY           SKY/WX    TMP DP  RH WIND       PRES   REMARKS
GRAND FORKS    FLURRIES  30  14  51 S24G32    30.22F WCI  16
GRAND FORKS AF CLOUDY    28  20  71 SE24G35   30.19F WCI  14
DEVILS LAKE    CLOUDY    28  22  78 SE26G33   30.07F WCI  13
FARGO          MIX PCPN  32  14  47 SE23G36   30.23F WCI  19
GRAFTON        CLOUDY    30  18  59 SE24G36   30.23F HAZE    WCI  16
GWINNER        CLOUDY    32  25  74 MISG      30.16F
ROLLA          CLOUDY    27  25  93 S26G33    30.03R WCI  11
$$

CITY           SKY/WX    TMP DP  RH WIND       PRES   REMARKS
ABERDEEN       CLOUDY    34  24  67 SE25G36   30.09F
MOBRIDGE       FAIR      47  30  51 SE24G32   29.91F
BUFFALO          N/A     56  38  50 SW8       29.74F
RAPID CITY     FAIR      62  44  51 N10       29.77R
GLASGOW        FAIR      54  36  50 S5        29.76F
SIDNEY         FAIR      53  35  50 S12       29.79F
WOLF POINT     FAIR      56  38  50 W7        29.77F
GLENDIVE       FAIR      53  37  54 S6        29.78F
MILES CITY     FAIR      56  38  50 VRB6      29.77F
BAKER          FAIR      56  36  47 SW5       29.78F
$$

CITY           SKY/WX    TMP DP  RH WIND       PRES   REMARKS
BILLINGS       FAIR      62  40  44 VRB3      29.76F
GREAT FALLS    FAIR      60  22  23 W29G35    29.74F
$$





USA.gov is the U.S. government's official web portal to all federal, state and local government web resources and services.